GW6222 Weather Reports


time (UTC)temp
C
wind
direction
speed
KPH
gust
KPH
rain 1hr
cm
rain 24hr
cm
rain mn
cm
humidity
%
barometer
mb
20260509091549 10 240 0.0 3.2 0.00 0.00 0.00 81 1001.7
20260509084556 10 186 0.0 8.0 0.00 0.00 0.00 76 1001.8
20260509083051 10 196 1.6 3.2 0.00 0.00 0.00 73 1002.0
20260509081551 10 151 1.6 4.8 0.00 0.00 0.00 71 1002.4
20260509080053 10 219 0.0 4.8 0.00 0.00 0.00 68 1002.6
20260509074554 10 204 1.6 4.8 0.00 0.00 0.00 64 1002.7
20260509073048 10 208 1.6 4.8 0.00 0.00 0.00 57 1002.9
20260509071551 10 229 1.6 4.8 0.00 0.00 0.00 51 1003.1
20260509064553 10 224 1.6 3.2 0.00 0.00 0.00 40 1003.2
20260509063049 10 190 1.6 6.4 0.00 0.00 0.00 39 1003.5
20260509061555 10 166 1.6 4.8 0.00 0.00 0.00 39 1003.6
20260509060052 10 0 1.6 4.8 0.00 0.00 0.00 38 1003.7
20260509054614 10 165 1.6 4.8 0.00 0.00 0.00 38 1004.0
20260509053141 10 157 0.0 1.6 0.00 0.00 0.00 37 1003.9
20260509051553 10 149 0.0 3.2 0.00 0.00 0.00 37 1004.0
20260509050053 10 158 0.0 1.6 0.00 0.00 0.00 37 1004.0
20260509044550 10 194 0.0 3.2 0.00 0.00 0.00 36 1004.2
20260509043047 10 144 0.0 1.6 0.00 0.00 0.00 38 1004.3
20260509041551 10 200 0.0 1.6 0.00 0.00 0.00 37 1004.5
20260509040107 10 0 0.0 1.6 0.00 0.00 0.00 37 1004.6
20260509034609 10 206 0.0 3.2 0.00 0.00 0.00 37 1004.8
20260509033052 10 150 0.0 3.2 0.00 0.00 0.00 46 1005.0
20260509031550 10 211 0.0 1.6 0.00 0.00 0.00 40 1005.3
20260509030056 10 0 0.0 1.6 0.00 0.00 0.00 44 1005.3
20260509024552 9 202 0.0 1.6 0.00 0.00 0.00 43 1005.5
20260509023052 8 0 0.0 0.0 0.00 0.00 0.00 65 1005.5
20260509021556 9 0 0.0 0.0 0.00 0.00 0.00 57 1005.5
20260509020050 9 0 0.0 0.0 0.00 0.00 0.00 53 1005.5
20260509014551 10 0 0.0 0.0 0.00 0.00 0.00 53 1005.4
20260509013108 11 0 0.0 0.0 0.00 0.00 0.00 50 1005.4
20260509011608 11 0 0.0 0.0 0.00 0.00 0.00 36 1005.4
20260509010051 12 0 0.0 0.0 0.00 0.00 0.00 35 1005.5
20260509004554 12 0 0.0 0.0 0.00 0.00 0.00 34 1005.6
20260509003123 13 200 0.0 3.2 0.00 0.00 0.00 32 1005.7
20260509001605 13 0 0.0 3.2 0.00 0.00 0.00 32 1005.7
20260509000111 14 0 0.0 3.2 0.00 0.00 0.00 32 1005.9
20260508234553 15 246 0.0 1.6 0.00 0.00 0.00 30 1006.0
20260508233054 15 0 0.0 1.6 0.00 0.00 0.00 35 1005.9
20260508231550 15 0 0.0 1.6 0.00 0.00 0.00 30 1005.9
20260508230050 16 240 0.0 6.4 0.00 0.00 0.00 30 1005.9
20260508224551 16 0 0.0 3.2 0.00 0.00 0.00 33 1006.0
20260508223051 16 0 0.0 1.6 0.00 0.00 0.00 32 1006.0
20260508221554 17 234 1.6 4.8 0.00 0.00 0.00 27 1005.9
20260508220048 17 284 1.6 4.8 0.00 0.00 0.00 25 1006.0
20260508214553 17 215 1.6 6.4 0.00 0.00 0.00 25 1006.0
20260508213056 18 247 0.0 1.6 0.00 0.00 0.00 28 1006.0
20260508211547 17 219 1.6 4.8 0.00 0.00 0.00 26 1006.1
20260508210054 17 303 0.0 6.4 0.00 0.00 0.00 26 1006.2
20260508204552 17 205 1.6 6.4 0.00 0.00 0.00 28 1006.3
20260508203053 17 306 0.0 6.4 0.00 0.00 0.00 27 1006.5
20260508201600 16 200 1.6 8.0 0.00 0.00 0.00 27 1006.7
20260508200059 17 224 1.6 4.8 0.00 0.00 0.00 28 1006.8
20260508194557 17 248 0.0 4.8 0.00 0.00 0.00 28 1007.1
20260508193058 17 229 0.0 8.0 0.00 0.00 0.00 29 1007.2
20260508191555 17 0 1.6 8.0 0.00 0.00 0.00 29 1007.3
20260508190055 17 244 0.0 4.8 0.00 0.00 0.00 29 1007.4
20260508184609 17 217 0.0 12.9 0.00 0.00 0.00 32 1007.6
20260508183103 17 40 0.0 4.8 0.00 0.00 0.00 29 1007.7
20260508181559 17 33 0.0 3.2 0.00 0.00 0.00 30 1008.0
20260508180059 16 218 1.6 6.4 0.00 0.00 0.00 29 1008.2
20260508174601 16 163 1.6 9.7 0.00 0.00 0.00 29 1008.3
20260508173057 17 193 1.6 6.4 0.00 0.00 0.00 30 1008.7
20260508171558 17 84 1.6 4.8 0.00 0.00 0.00 29 1009.0
20260508170057 16 206 0.0 6.4 0.00 0.00 0.00 31 1009.3
20260508164553 16 236 3.2 8.0 0.00 0.00 0.00 27 1009.4
20260508163112 16 0 0.0 4.8 0.00 0.00 0.00 33 1009.5
20260508161550 15 80 0.0 4.8 0.00 0.00 0.00 32 1009.5
20260508160052 16 296 0.0 4.8 0.00 0.00 0.00 30 1009.8
20260508154558 15 186 1.6 8.0 0.00 0.00 0.00 33 1009.9
20260508153057 15 317 0.0 6.4 0.00 0.00 0.00 32 1009.9
20260508151557 15 142 0.0 6.4 0.00 0.00 0.00 32 1009.9
20260508150057 15 225 1.6 6.4 0.00 0.00 0.00 33 1010.0
20260508144555 15 155 0.0 3.2 0.00 0.00 0.00 36 1010.0
20260508143058 13 78 1.6 8.0 0.00 0.00 0.00 40 1010.1
20260508141603 13 198 1.6 6.4 0.00 0.00 0.00 35 1010.2
20260508140058 13 242 0.0 6.4 0.00 0.00 0.00 40 1010.1
20260508134600 13 236 1.6 4.8 0.00 0.00 0.00 43 1010.2
20260508133106 12 212 0.0 3.2 0.00 0.00 0.00 51 1010.3
20260508131602 11 160 1.6 4.8 0.00 0.00 0.00 54 1010.6
20260508130110 10 166 1.6 6.4 0.00 0.00 0.00 53 1010.5
20260508124608 10 192 0.0 4.8 0.00 0.00 0.00 58 1010.6
20260508123059 10 194 0.0 3.2 0.00 0.00 0.00 59 1010.6
20260508121551 10 0 0.0 1.6 0.00 0.00 0.00 62 1010.4
20260508120057 9 0 0.0 0.0 0.00 0.00 0.00 70 1010.4
20260508114553 6 0 0.0 0.0 0.00 0.00 0.00 84 1010.2
20260508113107 3 0 0.0 0.0 0.00 0.00 0.00 86 1010.2
20260508111549 2 0 0.0 0.0 0.00 0.00 0.00 91 1010.0
20260508110100 0 0 0.0 0.0 0.00 0.00 0.00 93 1010.0
20260508104549 0 0 0.0 1.6 0.00 0.00 0.00 93 1010.0
20260508103050 0 0 0.0 0.0 0.00 0.00 0.00 93 1009.9
20260508101553 0 0 0.0 1.6 0.00 0.00 0.00 93 1010.0
20260508100048 0 0 0.0 0.0 0.00 0.00 0.00 92 1010.0
20260508094554 0 0 0.0 1.6 0.00 0.00 0.00 91 1010.1
20260508093101 0 0 0.0 0.0 0.00 0.00 0.00 92 1010.2